Weather History for KFQD - December, 2012

Change the Weather History Date:

Sunday, December 9, 2012

  Actual Average (KAVL) Record (KAVL)
Temperature  
Mean Temperature 59 °F 41 °F  
Max Temperature 67 °F 51 °F 70 °F (1923)
Min Temperature 51 °F 30 °F 2 °F (1917)
Degree Days  
Heating Degree Days 6 24  
Month to date heating degree days 210  
Since 1 July heating degree days 1077  
Cooling Degree Days 0 0  
Month to date cooling degree days 0  
Year to date cooling degree days 863  
Growing Degree Days 9 (Base 50)    
Moisture  
Dew Point 55 °F    
Average Humidity 91    
Maximum Humidity 100    
Minimum Humidity 66    
Precipitation  
Precipitation 0.00 in 0.13 in 1.32 in (1919)
Month to date precipitation 1.17  
Year to date precipitation 43.15  
Snow  
Snow 0.00 in 0.00 in 2.00 in (1938)
Month to date snowfall 0.1  
Since 1 July snowfall 0.2  
Snow Depth -    
Sea Level Pressure  
Sea Level Pressure 30.06 in    
Wind  
Wind Speed 3 mph (South)    
Max Wind Speed 12 mph    
Max Gust Speed 17 mph    
Visibility 6 miles    
Events Fog , Rain    
T = Trace of Precipitation, MM = Missing Value Source: NWS Daily Summary

Daily Weather History Graph

Daily Weather History Graph

Search for Another Location

Airport or City:

Trip Planner

Search our weather history database for the weather conditions in past years. The results will help you decide how hot, cold, wet, or windy it might be!

Date:

Astronomy

Dec. 09, 2012 Rise Set
Actual Time 7:25 AM EST 5:15 PM EST
Civil Twilight 6:57 AM EST 5:43 PM EST
Nautical Twilight 6:25 AM EST 6:15 PM EST
Astronomical Twilight 5:54 AM EST 6:45 PM EST
Moon 3:03 AM EST (12/9) 2:15 PM EST (12/9)
Length of Visible Light 10h 45m
Length of Day
9h 49m
Waning Crescent, 19% of the Moon is Illuminated
Dec 9
Waning Crescent
Dec 13
New
Dec 20
First Quarter
Dec 28
Full
Jan 4
Last Quarter

Hourly Weather History & Observations

Time (EST) Temp. Dew Point Humidity Pressure Visibility Wind Dir Wind Speed Gust Speed Precip Events Conditions
12:15 AM 56.1 °F 54.9 °F 96% 30.07 in 10.0 mi SE 3.5 mph - N/A   Overcast
12:35 AM 56.3 °F 55.2 °F 96% 30.07 in 7.0 mi South 4.6 mph - N/A Rain Rain
12:55 AM 56.7 °F 55.6 °F 96% 30.06 in 10.0 mi Calm Calm - N/A   Overcast
1:15 AM 56.5 °F 55.6 °F 97% 30.06 in 10.0 mi Calm Calm - N/A   Overcast
1:35 AM 56.3 °F 55.6 °F 97% 30.07 in 7.0 mi Calm Calm - N/A   Overcast
1:55 AM 55.9 °F 55.6 °F 99% 30.07 in 5.0 mi Calm Calm - N/A   Overcast
2:15 AM 56.3 °F 55.6 °F 97% 30.07 in 7.0 mi South 3.5 mph - N/A   Overcast
2:35 AM 55.8 °F 55.4 °F 99% 30.07 in 7.0 mi South 3.5 mph - N/A   Overcast
2:55 AM 56.1 °F 55.4 °F 97% 30.07 in 7.0 mi SSE 3.5 mph - N/A   Overcast
3:15 AM 55.8 °F 54.9 °F 97% 30.07 in 7.0 mi Calm Calm - N/A   Overcast
3:35 AM 55.4 °F 54.7 °F 97% 30.07 in 5.0 mi Calm Calm - N/A   Scattered Clouds
3:55 AM 55.4 °F 55.0 °F 99% 30.07 in 5.0 mi SE 4.6 mph - N/A   Mostly Cloudy
4:15 AM 54.3 °F 53.8 °F 98% 30.06 in 4.0 mi Calm Calm - N/A   Overcast
4:35 AM 53.8 °F 53.4 °F 99% 30.06 in 2.0 mi SSE 5.8 mph - N/A   Mostly Cloudy
4:55 AM 52.7 °F 52.2 °F 98% 30.07 in 0.8 mi Calm Calm - N/A   Mostly Cloudy
5:15 AM 52.2 °F 52.0 °F 99% 30.07 in 0.5 mi Calm Calm - N/A Fog Fog
5:35 AM 52.3 °F 52.3 °F 100% 30.07 in 0.5 mi Calm Calm - N/A Fog Fog
5:55 AM 52.3 °F 52.3 °F 100% 30.08 in 0.8 mi Calm Calm - N/A   Overcast
6:15 AM 51.3 °F 51.1 °F 99% 30.08 in 0.2 mi NNW 3.5 mph - N/A Fog Fog
6:35 AM 52.0 °F 52.0 °F 100% 30.09 in 0.2 mi Calm Calm - N/A Fog Fog
7:15 AM 53.1 °F 53.1 °F 100% 30.10 in 0.2 mi SE 4.6 mph - N/A Fog Fog
7:35 AM 53.1 °F 53.1 °F 100% 30.11 in 0.2 mi South 3.5 mph - N/A Fog Fog
7:55 AM 53.2 °F 53.2 °F 100% 30.11 in 0.2 mi Calm Calm - N/A Fog Fog
8:15 AM 53.6 °F 53.6 °F 100% 30.11 in 0.2 mi Calm Calm - N/A Fog Fog
8:35 AM 53.6 °F 53.6 °F 100% 30.11 in 0.2 mi Calm Calm - N/A Fog Fog
8:55 AM 53.8 °F 53.8 °F 100% 30.11 in 0.2 mi Calm Calm - N/A Fog Fog
9:15 AM 53.8 °F 53.8 °F 100% 30.12 in 0.2 mi Calm Calm - N/A Fog Fog
9:35 AM 54.1 °F 54.1 °F 100% 30.12 in 0.2 mi Calm Calm - N/A Fog Fog
9:55 AM 54.1 °F 54.1 °F 100% 30.12 in 0.2 mi Calm Calm - N/A Fog Fog
10:15 AM 54.5 °F 54.5 °F 100% 30.12 in 0.2 mi Calm Calm - N/A Fog Fog
10:35 AM 54.7 °F 54.7 °F 100% 30.12 in 0.8 mi Calm Calm - N/A   Overcast
10:55 AM 55.0 °F 55.0 °F 100% 30.12 in 1.2 mi Calm Calm - N/A   Overcast
11:15 AM 55.6 °F 55.6 °F 100% 30.12 in 1.5 mi Calm Calm - N/A   Overcast
11:35 AM 56.3 °F 55.6 °F 97% 30.10 in 2.5 mi Calm Calm - N/A   Overcast
11:55 AM 57.0 °F 55.9 °F 96% 30.09 in 3.0 mi Calm Calm - N/A   Overcast
12:15 PM 58.8 °F 56.7 °F 93% 30.09 in 4.0 mi Calm Calm - N/A   Overcast
12:35 PM 59.2 °F 56.3 °F 90% 30.08 in 5.0 mi Calm Calm - N/A   Overcast
12:55 PM 59.9 °F 56.5 °F 88% 30.07 in 5.0 mi Calm Calm - N/A   Overcast
1:15 PM 62.1 °F 57.2 °F 84% 30.06 in 7.0 mi Calm Calm - N/A   Scattered Clouds
1:35 PM 64.4 °F 57.6 °F 78% 30.05 in 7.0 mi SSE 3.5 mph - N/A   Scattered Clouds
1:55 PM 65.7 °F 57.2 °F 74% 30.05 in 10.0 mi South 3.5 mph - N/A   Scattered Clouds
2:15 PM 66.2 °F 56.5 °F 71% 30.04 in 10.0 mi SSW 5.8 mph - N/A   Scattered Clouds
2:35 PM 67.3 °F 56.5 °F 68% 30.03 in 10.0 mi South 8.1 mph 17.3 mph N/A   Mostly Cloudy
2:55 PM 67.8 °F 56.8 °F 68% 30.03 in 10.0 mi South 9.2 mph - N/A   Overcast
3:15 PM 67.5 °F 56.5 °F 68% 30.04 in 10.0 mi South 11.5 mph 16.1 mph N/A   Scattered Clouds
3:35 PM 67.1 °F 56.1 °F 68% 30.03 in 10.0 mi South 11.5 mph - N/A   Scattered Clouds
3:55 PM 67.3 °F 55.6 °F 66% 30.04 in 10.0 mi South 10.4 mph - N/A   Clear
4:15 PM 66.2 °F 55.6 °F 69% 30.04 in 10.0 mi South 8.1 mph - N/A   Clear
4:35 PM 65.5 °F 55.4 °F 70% 30.04 in 10.0 mi South 5.8 mph - N/A   Scattered Clouds
4:55 PM 65.1 °F 55.4 °F 71% 30.04 in 10.0 mi SSW 6.9 mph - N/A   Clear
5:15 PM 64.4 °F 55.4 °F 73% 30.04 in 10.0 mi SSW 9.2 mph - N/A   Clear
5:35 PM 63.5 °F 55.2 °F 74% 30.04 in 10.0 mi SSW 6.9 mph - N/A   Clear
5:55 PM 62.4 °F 55.2 °F 77% 30.05 in 10.0 mi South 5.8 mph - N/A   Clear
6:15 PM 61.9 °F 55.9 °F 81% 30.04 in 10.0 mi SSW 5.8 mph - N/A   Clear
6:35 PM 62.1 °F 55.6 °F 79% 30.04 in 10.0 mi SSW 4.6 mph - N/A   Clear
6:55 PM 60.1 °F 55.4 °F 85% 30.04 in 10.0 mi South 3.5 mph - N/A   Clear
7:15 PM 59.7 °F 55.4 °F 86% 30.04 in 10.0 mi South 3.5 mph - N/A   Clear
7:35 PM 59.5 °F 55.9 °F 88% 30.03 in 10.0 mi Calm Calm - N/A   Clear
7:55 PM 58.8 °F 55.8 °F 90% 30.04 in 10.0 mi SSE 3.5 mph - N/A   Clear
8:15 PM 58.3 °F 55.9 °F 92% 30.03 in 7.0 mi SSE 3.5 mph - N/A   Clear
8:35 PM 57.4 °F 55.6 °F 94% 30.02 in 7.0 mi SSE 3.5 mph - N/A   Clear
8:55 PM 57.6 °F 56.1 °F 95% 30.02 in 7.0 mi SSE 4.6 mph - N/A   Mostly Cloudy
9:15 PM 57.4 °F 56.5 °F 97% 30.02 in 7.0 mi South 3.5 mph - N/A   Mostly Cloudy
9:35 PM 57.6 °F 56.5 °F 96% 30.02 in 7.0 mi South 3.5 mph - N/A   Scattered Clouds
9:55 PM 58.1 °F 57.2 °F 97% 30.01 in 5.0 mi South 4.6 mph - N/A   Mostly Cloudy
10:15 PM 58.1 °F 57.2 °F 97% 30.01 in 5.0 mi Calm Calm - N/A   Overcast
10:35 PM 58.5 °F 57.6 °F 97% 30.01 in 5.0 mi South 3.5 mph - N/A   Overcast
10:55 PM 58.3 °F 57.6 °F 97% 30.01 in 5.0 mi SSW 4.6 mph - N/A   Overcast
11:15 PM 58.3 °F 57.6 °F 97% 30.01 in 4.0 mi South 5.8 mph - N/A   Overcast
11:35 PM 58.3 °F 57.7 °F 98% 30.00 in 4.0 mi South 5.8 mph - N/A   Overcast
11:55 PM 58.5 °F 57.7 °F 97% 30.00 in 5.0 mi SSW 5.8 mph - N/A   Overcast